Powrót do katalogu

OPS 4682 DEB

AktywnyPO
NORAD 38425·DEBRIS·🇺🇸 United States

Wystrzelony Apr 3, 1965 z Vandenberg Space Force Base

Loading…

Następne Przeloty (najbliższe 24 godziny)

TLE

ŚwieżeSource: Space-Track

Epoka: Sep 14, 2026, 07:06 UTC

1 38425U 65027EE  26257.29595578  .00000187  00000-0  63875-3 0  9992
2 38425  90.2519   9.7125 0034387 356.2794   3.8065 12.95256038674094

Śledź OPS 4682 DEB w czasie rzeczywistym z AllMySat

Download on the App Store